Location: Brad
(46.1333°N, 22.7833°E)
Time: 03:59:59
(UTC+00:00)

BlueWalker 3 - Visible Passes

Search period start: 05 June 2023 00:00
Search period end: 15 June 2023 00:00
Orbit: 494 x 513 km, 53.2° (Epoch: 04 June)

Date Brightness Start Highest point End Pass type
(mag) Time Alt. Az. Time Alt. Az. Time Alt. Az.
05 Jun 3.9 19:07:16 10° WNW 19:10:43 30° N 19:14:11 10° NE visible
05 Jun 3.7 20:46:28 10° NW 20:49:59 32° NNE 20:53:31 10° ENE visible
05 Jun 1.8 22:24:58 10° WNW 22:28:52 90° SW 22:29:07 78° ESE visible
06 Jun 3.9 18:46:53 10° WNW 18:50:18 30° N 18:53:46 10° NE visible
06 Jun 3.6 20:26:04 10° NW 20:29:34 32° NNE 20:33:06 10° ENE visible
06 Jun 1.8 22:04:34 10° WNW 22:08:27 88° SSW 22:08:43 76° SE visible
07 Jun 3.6 20:05:38 10° NW 20:09:10 33° NNE 20:12:41 10° ENE visible
07 Jun 1.8 21:44:08 10° WNW 21:48:01 86° SSW 21:48:26 69° SE visible
08 Jun 3.5 19:45:12 10° NW 19:48:43 33° NNE 19:52:15 10° ENE visible
08 Jun 1.8 21:23:41 10° WNW 21:27:34 84° SSW 21:28:14 59° SE visible
09 Jun 3.5 19:24:45 10° NW 19:28:16 33° NNE 19:31:49 10° E visible
09 Jun 1.8 21:03:14 10° WNW 21:07:06 82° SW 21:08:06 49° SE visible
10 Jun 3.4 19:04:17 10° NW 19:07:49 33° NNE 19:11:22 10° E visible
10 Jun 1.8 20:42:46 10° WNW 20:46:39 81° SSW 20:48:01 38° SE visible
10 Jun 4.5 22:22:30 10° W 22:22:40 11° W 22:22:40 11° W visible
11 Jun 1.8 20:22:18 10° WNW 20:26:10 79° SSW 20:27:58 30° SE visible
11 Jun 4.4 22:02:06 10° W 22:02:38 12° WSW 22:02:38 12° WSW visible
12 Jun 1.9 20:01:49 10° WNW 20:05:41 77° SSW 20:07:58 23° SE visible
12 Jun 4.3 21:41:41 10° W 21:42:38 12° WSW 21:42:38 12° WSW visible
13 Jun 1.9 19:41:19 10° WNW 19:45:10 75° SW 19:48:00 18° SE visible
13 Jun 4.2 21:21:15 10° W 21:22:40 13° WSW 21:22:40 13° WSW visible
14 Jun 2.0 19:20:49 10° WNW 19:24:39 74° SW 19:28:04 13° SE visible
14 Jun 4.2 21:00:50 10° W 21:02:36 13° SW 21:02:45 13° SW visible
